Weather in Motueka

New Zealand     41°06′35″S   173°00′42″E
temp.,
°C
wind,
m/s
gust,
m/s
humid.,
%
clouds,
%
prec.,
mm/h
press.,
hPa
HPBL,
m
28 november, sun
sun2801:00+13ne4794100 1.4 1023722
04:00+12nne1395100 1.7 1022233
07:00+12nne1396100 3.7 1022338
10:00+13e2398100 3.3 1023281
13:00+13s1297100 5.0 1022218
16:00+13sse1195100 0.2 1021217
19:00+15ene1193100 0.3 1020186
22:00+14s0196100 0.2 102195
29 november, mon
mon2901:00+14ssw0194100 0.2 102164
04:00+13w119354 0.0 102039
07:00+14w019132 0.0 101967
10:00+16n128468 0.0 1019314
13:00+16nne129356 0.5 1019168
16:00+19nne027759 0.1 1017547
19:00+16s019773 0.4 101793
22:00+16w119627 0.0 101717
30 november, tue
tue3001:00+15sw119696 0.0 101718
04:00+14wnw1197100 0.0 101518
07:00+15w1195100 0.0 101533
10:00+19e117890 0.0 1015457
13:00+21ne3272100 0.1 1014762
16:00+21e4572100 0.1 1014842
19:00+16nne378963 0.4 1017473
22:00+15nw2392100 0.1 1019146
1 december, wed
wed101:00+15nw119295 0.1 102041
04:00+15se119492 0.0 102164
07:00+15se119066 0.1 1022179
10:00+17ese227029 0.0 1023673
13:00+18ene226215 0.1 1023754
16:00+18ne436362 0.0 1022675
19:00+17nne336723 0.0 1022377
22:00+13w1184100 0.0 102430
2 december, thu
thu201:00+13s1187100 0.0 102592
04:00+12ssw118996 0.0 102477
07:00+13s1185100 0.0 1024115
10:00+16ene2267100 0.0 1025575
13:00+18ne4463100 0.0 1024717
16:00+18ne3370100 0.0 1022523
19:00+15ne0187100 0.1 1023150
22:00+14s2296100 0.5 1024111